Location: Sungai Dangang
(2.7500°N, 113.8333°E)
Time: 22:12:16
(UTC+00:00)

Landsat 5 - Pass Details

Date: 16 May 2021
Orbit: 527 x 654 km, 98.2° (Epoch: 15 June)

Event Time Altitude Azimuth Distance (km) Brightness Sun altitude
Rises 21:49:40 0° 179° (S) 2,971 6.9 -6.5°
Reaches altitude 10° 21:51:59 10° 185° (S) 2,054 6.0 -5.9°
Maximum altitude 21:56:16 45° 258° (WSW) 872 3.9 -4.9°
Drops below altitude 10° 22:00:28 10° 331° (NNW) 2,007 6.1 -3.9°
Sets 22:02:42 0° 337° (NNW) 2,895 7.0 -3.4°
